D8954 Weather Reports


time (UTC)temp
C
wind
direction
speed
KPH
gust
KPH
rain 1hr
cm
rain 24hr
cm
rain mn
cm
humidity
%
barometer
mb
20260509151009 18 94 3.2 9.7 0.00 0.00 0.00 60 1015.5
20260509150508 19 63 4.8 11.3 0.00 0.00 0.00 61 1015.6
20260509150008 19 56 6.4 11.3 0.00 0.00 0.00 60 1015.7
20260509145509 19 74 8.0 16.1 0.00 0.00 0.00 60 1015.7
20260509145009 20 69 9.7 14.5 0.00 0.00 0.00 59 1015.7
20260509144508 19 77 6.4 14.5 0.00 0.00 0.00 60 1015.8
20260509144009 19 58 4.8 16.1 0.00 0.00 0.00 59 1015.7
20260509143508 19 79 6.4 16.1 0.00 0.00 0.00 59 1015.9
20260509143008 19 56 11.3 20.9 0.00 0.00 0.00 59 1015.9
20260509142509 19 104 4.8 11.3 0.00 0.00 0.00 59 1015.9
20260509141508 19 50 8.0 16.1 0.00 0.00 0.00 60 1016.0
20260509141008 19 82 4.8 12.9 0.00 0.00 0.00 61 1016.0
20260509140509 20 46 6.4 16.1 0.00 0.00 0.00 59 1016.0
20260509140008 20 72 11.3 16.1 0.00 0.00 0.00 59 1016.1
20260509135509 20 99 4.8 12.9 0.00 0.00 0.00 58 1016.1
20260509135008 20 23 4.8 11.3 0.00 0.00 0.00 61 1016.1
20260509134508 19 119 3.2 11.3 0.00 0.00 0.00 57 1016.3
20260509134008 19 109 6.4 12.9 0.00 0.00 0.00 61 1016.3
20260509133508 19 145 4.8 12.9 0.00 0.00 0.00 59 1016.4
20260509133009 19 151 6.4 16.1 0.00 0.00 0.00 59 1016.4
20260509132509 19 113 6.4 14.5 0.00 0.00 0.00 61 1016.4
20260509132008 19 74 6.4 12.9 0.00 0.00 0.00 59 1016.5
20260509131509 19 115 9.7 19.3 0.00 0.00 0.00 62 1016.6
20260509131009 19 86 6.4 14.5 0.00 0.00 0.00 60 1016.7
20260509130509 19 112 9.7 19.3 0.00 0.00 0.00 62 1016.8
20260509130009 19 32 4.8 9.7 0.00 0.00 0.00 63 1016.9
20260509125509 18 159 3.2 4.8 0.00 0.00 0.00 60 1017.0
20260509124507 18 44 6.4 16.1 0.00 0.00 0.00 61 1017.1
20260509124005 18 144 1.6 12.9 0.00 0.00 0.00 61 1017.2
20260509123505 17 133 4.8 12.9 0.00 0.00 0.00 63 1017.4
20260509123005 17 124 4.8 9.7 0.00 0.00 0.00 64 1017.4
20260509122504 17 170 4.8 16.1 0.00 0.00 0.00 63 1017.4
20260509121504 18 130 3.2 12.9 0.00 0.00 0.00 61 1017.5
20260509121005 18 152 3.2 12.9 0.00 0.00 0.00 60 1017.6
20260509120005 18 98 3.2 11.3 0.00 0.00 0.00 62 1017.7
20260509115505 18 204 4.8 11.3 0.00 0.00 0.00 62 1017.7
20260509115004 18 141 8.0 19.3 0.00 0.00 0.00 64 1017.7
20260509114505 18 75 3.2 19.3 0.00 0.00 0.00 63 1017.6
20260509114005 18 148 4.8 11.3 0.00 0.00 0.00 65 1017.7
20260509113504 18 157 6.4 16.1 0.00 0.00 0.00 62 1017.7
20260509113005 17 87 9.7 19.3 0.00 0.00 0.00 66 1017.8
20260509112504 17 109 8.0 19.3 0.00 0.00 0.00 64 1017.8
20260509112004 17 144 8.0 12.9 0.00 0.00 0.00 64 1017.9
20260509111504 17 33 8.0 19.3 0.00 0.00 0.00 65 1018.0
20260509111005 17 32 9.7 19.3 0.00 0.00 0.00 66 1018.0
20260509110504 17 168 3.2 11.3 0.00 0.00 0.00 66 1018.0
20260509110006 17 67 4.8 12.9 0.00 0.00 0.00 66 1018.1
20260509105504 17 110 4.8 14.5 0.00 0.00 0.00 66 1018.1
20260509104504 17 91 3.2 12.9 0.00 0.00 0.00 67 1018.3
20260509104004 17 51 8.0 16.1 0.00 0.00 0.00 68 1018.3
20260509103504 16 50 4.8 12.9 0.00 0.00 0.00 67 1018.4
20260509103004 17 33 9.7 16.1 0.00 0.00 0.00 67 1018.4
20260509102505 16 31 9.7 19.3 0.00 0.00 0.00 68 1018.4
20260509102004 16 66 4.8 12.9 0.00 0.00 0.00 68 1018.4
20260509101004 16 68 9.7 19.3 0.00 0.00 0.00 68 1018.5
20260509100005 16 69 8.0 14.5 0.00 0.00 0.00 68 1018.8
20260509095504 16 57 8.0 14.5 0.00 0.00 0.00 68 1018.7
20260509095005 15 48 8.0 19.3 0.00 0.00 0.00 71 1018.7
20260509094505 15 66 4.8 16.1 0.00 0.00 0.00 71 1018.7
20260509094005 15 69 8.0 16.1 0.00 0.00 0.00 68 1018.7
20260509093504 15 64 8.0 14.5 0.00 0.00 0.00 71 1018.7
20260509093004 15 117 8.0 16.1 0.00 0.00 0.00 69 1018.7
20260509092504 15 161 8.0 14.5 0.00 0.00 0.00 69 1018.6
20260509092004 15 59 9.7 16.1 0.00 0.00 0.00 71 1018.7
20260509091504 15 119 6.4 12.9 0.00 0.00 0.00 73 1018.8
20260509090005 14 54 3.2 9.7 0.00 0.00 0.00 72 1018.9
20260509085505 14 49 6.4 11.3 0.00 0.00 0.00 74 1018.9
20260509084504 13 52 3.2 11.3 0.00 0.00 0.00 75 1018.8
20260509084005 13 82 6.4 11.3 0.00 0.00 0.00 76 1018.8
20260509083504 13 129 3.2 11.3 0.00 0.00 0.00 75 1018.8
20260509082505 12 97 6.4 11.3 0.00 0.00 0.00 77 1018.9
20260509082004 12 108 4.8 12.9 0.00 0.00 0.00 78 1018.9
20260509081505 12 163 4.8 11.3 0.00 0.00 0.00 77 1018.9
20260509081005 11 127 4.8 9.7 0.00 0.00 0.00 79 1018.9
20260509080006 11 68 3.2 9.7 0.00 0.00 0.00 80 1018.9
20260509075504 11 67 4.8 8.0 0.00 0.00 0.00 80 1018.9
20260509075004 11 72 3.2 8.0 0.00 0.00 0.00 80 1018.9
20260509074504 11 94 4.8 11.3 0.00 0.00 0.00 80 1019.0
20260509074004 11 149 4.8 9.7 0.00 0.00 0.00 80 1019.0
20260509073505 11 75 3.2 9.7 0.00 0.00 0.00 81 1019.1
20260509073004 11 149 3.2 9.7 0.00 0.00 0.00 80 1019.1
20260509072504 11 109 8.0 14.5 0.00 0.00 0.00 80 1019.2
20260509072005 10 148 4.8 12.9 0.00 0.00 0.00 82 1019.3
20260509071505 10 100 4.8 9.7 0.00 0.00 0.00 82 1019.3
20260509070505 10 89 4.8 12.9 0.00 0.00 0.00 82 1019.3
20260509070005 10 108 3.2 12.9 0.00 0.00 0.00 82 1019.3
20260509065504 10 110 3.2 12.9 0.00 0.00 0.00 82 1019.2
20260509065004 10 68 3.2 9.7 0.00 0.00 0.00 82 1019.2
20260509064505 10 45 4.8 9.7 0.00 0.00 0.00 82 1019.2
20260509064004 9 74 4.8 11.3 0.00 0.00 0.00 83 1019.2
20260509063004 9 46 4.8 9.7 0.00 0.00 0.00 84 1019.3
20260509062004 9 69 4.8 8.0 0.00 0.00 0.00 84 1019.3
20260509061504 8 61 4.8 8.0 0.00 0.00 0.00 85 1019.2
20260509060505 8 76 3.2 9.7 0.00 0.00 0.00 86 1019.1
20260509060006 8 84 3.2 4.8 0.00 0.00 0.00 86 1019.2
20260509054504 7 91 1.6 3.2 0.00 0.00 0.00 87 1019.1
20260509054004 7 77 1.6 3.2 0.00 0.00 0.00 87 1019.1
20260509053504 7 72 1.6 4.8 0.00 0.00 0.00 88 1019.1
20260509053004 7 75 3.2 4.8 0.00 0.00 0.00 88 1019.2
20260509052504 7 83 1.6 4.8 0.00 0.00 0.00 88 1019.1
20260509052005 7 87 1.6 4.8 0.00 0.00 0.00 88 1019.2
20260509051504 7 72 1.6 4.8 0.00 0.00 0.00 88 1019.1
20260509051004 7 70 4.8 4.8 0.00 0.00 0.00 88 1019.0
20260509050504 7 88 1.6 4.8 0.00 0.00 0.00 88 1019.1
20260509050005 7 55 1.6 4.8 0.00 0.00 0.00 88 1019.0
20260509045504 7 96 0.0 4.8 0.00 0.00 0.00 89 1019.0
20260509045004 6 62 1.6 4.8 0.00 0.00 0.00 89 1018.9
20260509044505 6 89 1.6 4.8 0.00 0.00 0.00 90 1018.9
20260509043504 6 110 1.6 4.8 0.00 0.00 0.00 89 1018.9
20260509042004 6 58 1.6 3.2 0.00 0.00 0.00 89 1018.8
20260509041504 6 58 3.2 4.8 0.00 0.00 0.00 89 1018.8
20260509041004 6 40 1.6 3.2 0.00 0.00 0.00 89 1018.9
20260509040504 6 39 1.6 3.2 0.00 0.00 0.00 89 1018.8
20260509040005 6 39 1.6 4.8 0.00 0.00 0.00 89 1018.8
20260509035504 6 55 1.6 3.2 0.00 0.00 0.00 89 1018.7
20260509035004 6 67 1.6 3.2 0.00 0.00 0.00 89 1018.7
20260509034504 6 69 1.6 3.2 0.00 0.00 0.00 89 1018.7
20260509034004 6 69 1.6 4.8 0.00 0.00 0.00 88 1018.7
20260509033505 6 36 3.2 4.8 0.00 0.00 0.00 88 1018.6
20260509033004 6 35 1.6 4.8 0.00 0.00 0.00 89 1018.7
20260509032504 6 36 1.6 4.8 0.00 0.00 0.00 89 1018.7
20260509032004 6 54 1.6 4.8 0.00 0.00 0.00 89 1018.7
20260509031504 6 72 3.2 4.8 0.00 0.00 0.00 89 1018.8
20260509031004 6 65 0.0 3.2 0.00 0.00 0.00 88 1018.8
20260509030504 6 65 1.6 3.2 0.00 0.00 0.00 88 1018.8
20260509030006 6 65 0.0 3.2 0.00 0.00 0.00 88 1018.8
20260509025004 6 70 1.6 4.8 0.00 0.00 0.00 88 1018.8
20260509024504 6 59 3.2 4.8 0.00 0.00 0.00 87 1018.8
20260509024004 7 67 1.6 4.8 0.00 0.00 0.00 87 1018.8
20260509023504 7 63 1.6 3.2 0.00 0.00 0.00 87 1018.9
20260509023004 7 63 3.2 4.8 0.00 0.00 0.00 87 1018.8
20260509022505 7 69 3.2 12.9 0.00 0.00 0.00 87 1018.7
20260509022004 7 76 0.0 4.8 0.00 0.00 0.00 87 1018.9
20260509021504 7 64 3.2 8.0 0.00 0.00 0.00 87 1018.7
20260509021004 7 43 3.2 8.0 0.00 0.00 0.00 87 1018.8
20260509020505 7 24 3.2 4.8 0.00 0.00 0.00 87 1018.8
20260509020005 7 78 1.6 4.8 0.00 0.00 0.00 86 1018.8
20260509015004 7 70 3.2 9.7 0.00 0.00 0.00 86 1018.6
20260509014504 7 45 4.8 12.9 0.00 0.00 0.00 86 1018.6
20260509013504 7 46 3.2 4.8 0.00 0.00 0.00 86 1018.7
20260509013004 7 59 3.2 4.8 0.00 0.00 0.00 86 1018.7
20260509012504 8 74 3.2 8.0 0.00 0.00 0.00 86 1018.7
20260509012004 8 69 1.6 3.2 0.00 0.00 0.00 85 1018.8
20260509011504 8 67 1.6 4.8 0.00 0.00 0.00 85 1018.8
20260509010505 8 71 1.6 4.8 0.00 0.00 0.00 85 1018.8
20260509010005 8 64 3.2 4.8 0.00 0.00 0.00 85 1018.8
20260509005004 8 111 3.2 4.8 0.00 0.00 0.00 85 1018.8
20260509004504 8 80 3.2 4.8 0.00 0.00 0.00 84 1018.8
20260509004004 8 78 6.4 12.9 0.00 0.00 0.00 84 1018.7
20260509003504 8 76 8.0 14.5 0.00 0.00 0.00 85 1018.8
20260509003004 8 85 1.6 3.2 0.00 0.00 0.00 84 1018.8
20260509002504 8 85 1.6 3.2 0.00 0.00 0.00 84 1018.8
20260509002004 8 86 1.6 3.2 0.00 0.00 0.00 84 1018.8
20260509001004 8 13 1.6 4.8 0.00 0.00 0.00 84 1018.9
20260509000504 8 21 3.2 4.8 0.00 0.00 0.00 84 1018.9
20260509000005 8 82 3.2 9.7 0.00 0.00 0.00 84 1018.9
20260508235504 8 123 3.2 4.8 0.00 0.00 0.00 84 1018.8
20260508235004 8 75 1.6 4.8 0.00 0.00 0.00 84 1018.9
20260508234004 8 17 1.6 4.8 0.00 0.00 0.00 84 1018.9
20260508233504 8 17 3.2 4.8 0.00 0.00 0.00 83 1018.9
20260508233004 8 24 0.0 4.8 0.00 0.00 0.00 83 1019.0
20260508232504 8 48 3.2 8.0 0.00 0.00 0.00 83 1018.9
20260508232004 8 59 0.0 3.2 0.00 0.00 0.00 83 1018.9
20260508231504 8 63 1.6 9.7 0.00 0.00 0.00 83 1019.0
20260508231005 8 53 1.6 4.8 0.00 0.00 0.00 83 1019.0
20260508230504 8 111 0.0 4.8 0.00 0.00 0.00 82 1019.1
20260508230005 8 50 0.0 3.2 0.00 0.00 0.00 82 1019.0
20260508225504 8 74 1.6 4.8 0.00 0.00 0.00 81 1019.0
20260508225004 8 21 3.2 4.8 0.00 0.00 0.00 81 1019.1
20260508224504 9 41 3.2 4.8 0.00 0.00 0.00 81 1019.1
20260508224004 9 64 0.0 4.8 0.00 0.00 0.00 81 1019.1
20260508223504 8 61 3.2 4.8 0.00 0.00 0.00 81 1019.1
20260508223004 8 44 1.6 4.8 0.00 0.00 0.00 81 1019.0
20260508222504 9 39 0.0 3.2 0.00 0.00 0.00 81 1019.0
20260508222005 9 38 0.0 4.8 0.00 0.00 0.00 81 1019.0
20260508221004 9 355 0.0 4.8 0.00 0.00 0.00 81 1019.0
20260508220505 9 26 1.6 4.8 0.00 0.00 0.00 81 1018.9
20260508220008 9 17 0.0 0.0 0.00 0.00 0.00 80 1018.8
20260508215504 8 319 0.0 0.0 0.00 0.00 0.00 83 1018.9
20260508215004 8 319 0.0 1.6 0.00 0.00 0.00 83 1018.8
20260508214504 9 319 0.0 3.2 0.00 0.00 0.00 81 1018.8
20260508214004 9 282 1.6 3.2 0.00 0.00 0.00 81 1018.8
20260508213005 9 281 0.0 3.2 0.00 0.00 0.00 81 1018.9
20260508212004 8 281 0.0 1.6 0.00 0.00 0.00 83 1018.9
20260508211504 8 282 1.6 3.2 0.00 0.00 0.00 84 1018.7
20260508211004 8 282 0.0 3.2 0.00 0.00 0.00 83 1018.7
20260508210504 8 282 1.6 3.2 0.00 0.00 0.00 82 1018.8
20260508210005 8 282 1.6 3.2 0.00 0.00 0.00 84 1018.8
20260508205504 8 281 1.6 3.2 0.00 0.00 0.00 83 1018.8
20260508205004 8 281 1.6 3.2 0.00 0.00 0.00 82 1018.8
20260508204504 8 281 3.2 4.8 0.00 0.00 0.00 81 1018.8
20260508204004 8 285 3.2 4.8 0.00 0.00 0.00 82 1018.7
20260508203504 8 289 3.2 3.2 0.00 0.00 0.00 82 1018.7
20260508203005 8 289 1.6 4.8 0.00 0.00 0.00 81 1018.7
20260508202504 8 302 3.2 4.8 0.00 0.00 0.00 80 1018.6
20260508202004 9 315 3.2 3.2 0.00 0.00 0.00 79 1018.6
20260508201504 9 321 1.6 3.2 0.00 0.00 0.00 79 1018.5
20260508200504 9 0 1.6 3.2 0.00 0.00 0.00 80 1018.6
20260508200005 8 9 1.6 3.2 0.00 0.00 0.00 81 1018.5
20260508195503 8 9 0.0 3.2 0.00 0.00 0.00 80 1018.5
20260508195004 9 9 1.6 1.6 0.00 0.00 0.00 79 1018.4
20260508194504 9 9 0.0 1.6 0.00 0.00 0.00 79 1018.3
20260508194004 10 9 1.6 3.2 0.00 0.00 0.00 77 1018.2
20260508193504 10 5 1.6 3.2 0.00 0.00 0.00 77 1018.2
20260508192004 9 5 0.0 3.2 0.00 0.00 0.00 78 1018.0
20260508191504 10 5 1.6 3.2 0.00 0.00 0.00 77 1017.9
20260508191004 10 5 1.6 3.2 0.00 0.00 0.00 75 1017.9
20260508190504 10 9 1.6 4.8 0.00 0.00 0.00 75 1017.9
20260508190005 11 29 1.6 4.8 0.00 0.00 0.00 74 1017.8
20260508185504 11 29 1.6 4.8 0.00 0.00 0.00 74 1017.6
20260508185004 11 23 3.2 4.8 0.00 0.00 0.00 75 1017.6
20260508184504 11 28 1.6 3.2 0.00 0.00 0.00 75 1017.5
20260508184004 11 40 0.0 0.0 0.00 0.00 0.00 75 1017.5
20260508183504 11 40 0.0 3.2 0.00 0.00 0.00 73 1017.5
20260508183004 11 40 1.6 3.2 0.00 0.00 0.00 74 1017.4
20260508182504 11 41 0.0 3.2 0.00 0.00 0.00 74 1017.4
20260508182004 11 41 1.6 3.2 0.00 0.00 0.00 73 1017.4
20260508181504 12 41 0.0 3.2 0.00 0.00 0.00 71 1017.3
20260508181004 12 40 1.6 3.2 0.00 0.00 0.00 71 1017.3
20260508180507 12 40 1.6 4.8 0.00 0.00 0.00 71 1017.2
20260508180005 12 17 1.6 3.2 0.00 0.00 0.00 70 1017.3
20260508174503 13 39 4.8 8.0 0.00 0.00 0.00 67 1017.0
20260508174004 13 25 4.8 11.3 0.00 0.00 0.00 66 1017.0
20260508173503 13 49 8.0 16.1 0.00 0.00 0.00 65 1017.0
20260508173004 14 60 6.4 11.3 0.00 0.00 0.00 64 1017.0
20260508172504 14 35 8.0 16.1 0.00 0.00 0.00 65 1017.0
20260508172004 14 66 6.4 11.3 0.00 0.00 0.00 66 1017.0
20260508171504 14 46 4.8 9.7 0.00 0.00 0.00 65 1016.9
20260508171004 14 51 6.4 12.9 0.00 0.00 0.00 65 1017.0
20260508170503 14 67 4.8 11.3 0.00 0.00 0.00 65 1016.9
20260508165504 14 68 8.0 14.5 0.00 0.00 0.00 64 1016.9
20260508165004 14 31 8.0 16.1 0.00 0.00 0.00 64 1016.8
20260508164503 15 48 8.0 14.5 0.00 0.00 0.00 63 1016.8
20260508164003 15 59 9.7 19.3 0.00 0.00 0.00 63 1016.8
20260508163504 15 70 4.8 11.3 0.00 0.00 0.00 64 1016.8
20260508163004 15 45 9.7 19.3 0.00 0.00 0.00 65 1016.9
20260508162504 15 47 8.0 14.5 0.00 0.00 0.00 65 1016.9
20260508162003 15 44 8.0 14.5 0.00 0.00 0.00 65 1016.9
20260508161504 14 60 6.4 12.9 0.00 0.00 0.00 66 1016.9
20260508161004 15 37 6.4 14.5 0.00 0.00 0.00 65 1016.8
20260508160503 15 43 9.7 14.5 0.00 0.00 0.00 64 1016.9
20260508160005 15 45 4.8 8.0 0.00 0.00 0.00 63 1016.9
20260508155503 15 63 3.2 8.0 0.00 0.00 0.00 62 1016.9
20260508155004 15 70 1.6 4.8 0.00 0.00 0.00 64 1016.9
20260508154004 15 44 4.8 8.0 0.00 0.00 0.00 63 1016.8
20260508153503 15 115 1.6 9.7 0.00 0.00 0.00 62 1016.8
20260508153004 15 128 4.8 9.7 0.00 0.00 0.00 62 1016.8
20260508152504 15 124 4.8 9.7 0.00 0.00 0.00 64 1016.8
20260508152004 15 64 4.8 11.3 0.00 0.00 0.00 63 1016.9
20260508151504 15 156 1.6 4.8 0.00 0.00 0.00 60 1016.9